OE5RBO Weather Reports


Display with metric or nautical units.
time (UTC)temp
F
wind
direction
speed
MPH
gust
MPH
rain 1hr
in
rain 24hr
in
rain mn
in
humidity
%
barometer
mb
20260901121311 78 273 1.0 4.0 0.00 0.00 0.00 57 1021.9
20260901120311 78 226 2.0 5.0 0.00 0.00 0.00 55 1022.1
20260901115311 80 329 2.0 6.0 0.00 0.00 0.00 54 1022.2
20260901114310 78 214 1.0 6.0 0.00 0.00 0.00 56 1022.3
20260901111309 73 210 1.0 3.0 0.00 0.00 0.00 65 1022.4
20260901110309 74 288 1.0 8.0 0.00 0.00 0.00 63 1022.5
20260901103308 72 225 1.0 4.0 0.00 0.00 0.00 66 1022.4
20260901102307 71 211 4.0 7.0 0.00 0.00 0.00 68 1022.6
20260901101307 72 229 3.0 9.0 0.00 0.00 0.00 67 1022.6
20260901100306 74 200 4.0 10.0 0.00 0.00 0.00 65 1022.7
20260901095306 73 207 1.0 9.0 0.00 0.00 0.00 64 1022.6
20260901094306 73 203 3.0 10.0 0.00 0.00 0.00 66 1022.6
20260901093306 71 180 6.0 13.0 0.00 0.00 0.00 64 1022.6
20260901092306 72 187 4.0 10.0 0.00 0.00 0.00 65 1022.6
20260901091305 72 215 2.0 8.0 0.00 0.00 0.00 65 1022.7
20260901090304 71 288 3.0 13.0 0.00 0.00 0.00 69 1022.8
20260901083303 70 288 4.0 10.0 0.00 0.00 0.00 70 1022.6
20260901082306 72 217 1.0 7.0 0.00 0.00 0.00 67 1022.6
20260901080302 71 288 2.0 10.0 0.00 0.00 0.00 71 1022.6
20260901075302 71 288 3.0 10.0 0.00 0.00 0.00 74 1022.6
20260901074301 71 190 4.0 10.0 0.00 0.00 0.00 71 1022.5
20260901072301 72 210 3.0 7.0 0.00 0.00 0.00 74 1022.5
20260901070300 72 186 1.0 5.0 0.00 0.00 0.00 73 1022.4
20260901065259 72 193 2.0 7.0 0.00 0.00 0.00 72 1022.4
20260901064259 71 219 1.0 4.0 0.00 0.00 0.00 71 1022.3
20260901063259 70 136 1.0 3.0 0.00 0.00 0.00 72 1022.2
20260901062259 68 150 1.0 2.0 0.00 0.00 0.00 76 1022.2
20260901061258 67 114 1.0 3.0 0.00 0.00 0.00 78 1022.2
20260901055257 62 0 0.0 0.0 0.00 0.00 0.00 91 1022.0
20260901054257 62 0 0.0 0.0 0.00 0.00 0.00 89 1022.0
20260901053257 63 167 0.0 2.0 0.00 0.00 0.00 87 1022.1
20260901052256 63 218 1.0 2.0 0.00 0.00 0.00 87 1022.1
20260901051256 63 159 1.0 3.0 0.00 0.00 0.00 84 1021.9
20260901050256 63 143 1.0 3.0 0.00 0.00 0.00 84 1021.7
20260901045255 63 145 3.0 8.0 0.00 0.00 0.00 83 1021.8
20260901044255 63 172 2.0 4.0 0.00 0.00 0.00 83 1021.8
20260901043254 64 153 2.0 5.0 0.00 0.00 0.00 82 1021.9
20260901041254 64 172 2.0 6.0 0.00 0.00 0.00 82 1022.0
20260901040254 64 141 2.0 6.0 0.00 0.00 0.00 83 1022.1
20260901035253 63 174 1.0 4.0 0.00 0.00 0.00 85 1022.1
20260901034253 63 155 1.0 3.0 0.00 0.00 0.00 85 1022.1
20260901033252 63 152 1.0 3.0 0.00 0.00 0.00 85 1022.1
20260901031251 63 138 2.0 6.0 0.00 0.00 0.00 85 1022.2
20260901030251 63 148 1.0 4.0 0.00 0.00 0.00 86 1022.3
20260901025251 63 118 3.0 5.0 0.00 0.00 0.00 85 1022.4
20260901024250 63 149 3.0 6.0 0.00 0.00 0.00 85 1022.4
20260901023250 63 132 2.0 8.0 0.00 0.00 0.00 86 1022.3
20260901022250 63 139 1.0 5.0 0.00 0.00 0.00 86 1022.3
20260901021249 62 165 3.0 8.0 0.00 0.00 0.00 87 1022.2
20260901015248 62 195 0.0 2.0 0.00 0.00 0.00 90 1022.2
20260901014248 62 214 0.0 3.0 0.00 0.00 0.00 89 1022.3
20260901013248 62 150 1.0 5.0 0.00 0.00 0.00 88 1022.3
20260901012247 62 0 0.0 0.0 0.00 0.00 0.00 87 1022.2
20260901010247 63 139 1.0 4.0 0.00 0.00 0.00 85 1022.0
20260901005247 63 0 0.0 0.0 0.00 0.00 0.00 86 1021.9
20260901003246 63 108 0.0 2.0 0.00 0.00 0.00 86 1021.8
20260901002245 64 191 1.0 3.0 0.00 0.00 0.00 85 1021.7
20260901001245 64 158 0.0 3.0 0.00 0.00 0.00 84 1021.6
20260901000245 64 0 0.0 0.0 0.00 0.00 0.00 84 1021.6
20260831234244 64 288 1.0 3.0 0.00 0.00 0.00 84 1021.3
20260831233244 65 0 0.0 0.0 0.00 0.00 0.00 84 1021.3
20260831232243 64 38 2.0 3.0 0.00 0.00 0.00 85 1021.1
20260831230242 65 0 0.0 0.0 0.00 0.00 0.06 86 1021.0
20260831225242 65 18 0.0 0.0 0.00 0.00 0.06 82 1021.0
20260831224242 65 41 4.0 5.0 0.00 0.00 0.06 82 1020.9
20260831223241 65 0 0.0 0.0 0.00 0.00 0.06 82 1020.8
20260831222241 66 0 0.0 0.0 0.00 0.00 0.06 83 1020.8
20260831221241 66 0 0.0 0.0 0.00 0.00 0.06 81 1020.8
20260831215240 66 155 3.0 9.0 0.00 0.00 0.06 80 1020.2
20260831214239 67 165 2.0 6.0 0.00 0.00 0.06 80 1020.1
20260831213239 67 156 3.0 6.0 0.00 0.00 0.06 79 1020.0
20260831212239 67 136 4.0 7.0 0.00 0.00 0.06 79 1019.9
20260831211239 67 143 3.0 7.0 0.00 0.00 0.06 79 1019.9
20260831210238 67 201 2.0 5.0 0.00 0.00 0.06 78 1019.8
20260831204238 68 225 3.0 10.0 0.00 0.00 0.06 75 1019.5
20260831203237 69 191 2.0 6.0 0.00 0.00 0.06 73 1019.5
20260831202237 69 194 3.0 8.0 0.00 0.00 0.06 72 1019.5
20260831201236 69 181 3.0 6.0 0.00 0.00 0.06 72 1019.4
20260831195235 69 136 4.0 7.0 0.00 0.00 0.06 72 1019.4
20260831194235 69 152 5.0 9.0 0.00 0.00 0.06 72 1019.4
20260831191233 70 176 4.0 8.0 0.00 0.00 0.06 73 1018.9
20260831190233 70 179 2.0 4.0 0.00 0.00 0.06 72 1018.7
20260831185233 70 165 3.0 9.0 0.00 0.00 0.06 71 1018.6
20260831184232 70 167 4.0 10.0 0.00 0.00 0.06 70 1018.5
20260831183232 70 172 4.0 9.0 0.00 0.00 0.06 71 1018.4
20260831182232 71 183 4.0 9.0 0.00 0.00 0.06 70 1018.3
20260831181231 71 204 4.0 9.0 0.00 0.00 0.06 71 1017.9
20260831180231 71 194 4.0 10.0 0.00 0.00 0.06 71 1017.7
20260831175231 71 203 2.0 6.0 0.00 0.00 0.06 74 1017.5
20260831174230 73 212 4.0 9.0 0.00 0.00 0.06 70 1017.4
20260831173230 73 204 2.0 8.0 0.00 0.00 0.06 69 1017.4
20260831172229 74 204 2.0 5.0 0.00 0.00 0.06 69 1017.3
20260831170228 74 288 3.0 10.0 0.00 0.00 0.06 67 1017.3
20260831165228 75 203 2.0 6.0 0.00 0.00 0.06 67 1017.2
20260831164228 75 215 2.0 8.0 0.00 0.00 0.06 66 1017.0
20260831163228 75 203 3.0 6.0 0.00 0.00 0.06 66 1017.0
20260831162227 76 207 3.0 8.0 0.00 0.00 0.06 63 1016.9
20260831161227 75 207 3.0 10.0 0.00 0.00 0.06 63 1016.7
20260831160226 76 195 3.0 7.0 0.00 0.00 0.06 65 1016.8
20260831155226 76 205 5.0 11.0 0.00 0.00 0.06 64 1016.9
20260831154226 77 184 2.0 6.0 0.00 0.00 0.06 66 1016.8
20260831153225 77 201 4.0 9.0 0.00 0.00 0.06 64 1017.0
20260831152225 78 195 2.0 4.0 0.00 0.00 0.06 66 1017.0
20260831151224 77 219 2.0 8.0 0.00 0.00 0.06 64 1017.2
20260831150224 77 204 2.0 6.0 0.00 0.00 0.06 65 1017.3
20260831145224 77 212 3.0 7.0 0.00 0.00 0.06 63 1017.4
20260831144223 76 218 3.0 8.0 0.00 0.00 0.06 67 1017.4
20260831141222 79 207 5.0 10.0 0.00 0.00 0.06 60 1017.2
20260831140222 80 197 4.0 10.0 0.00 0.00 0.06 57 1017.2
20260831135222 80 219 5.0 10.0 0.00 0.00 0.06 59 1017.3
20260831134221 83 211 2.0 7.0 0.00 0.00 0.06 50 1017.2
20260831133221 82 288 2.0 6.0 0.00 0.00 0.06 58 1017.3
20260831132220 81 224 2.0 8.0 0.00 0.00 0.06 60 1017.3
20260831131220 81 170 1.0 5.0 0.00 0.00 0.06 59 1017.4
20260831130220 80 288 3.0 10.0 0.00 0.00 0.06 61 1017.7
20260831125219 79 288 3.0 10.0 0.00 0.00 0.06 64 1017.6
20260831124219 78 229 2.0 10.0 0.00 0.00 0.06 63 1017.7
20260831122218 78 208 2.0 6.0 0.00 0.00 0.06 65 1017.9